When you browse on this site, cookies collect data to enhance your experience and personalize the content and advertising you see.
Visit our Privacy Policy to learn more. By continuing to use the site, you agree to this use of cookies and data.

Stündliche Wetter Namibe

Heute, 11 Juli, Samstag

Zeit Temperatur Niederschläge Wind Luftdruck Luftfeuchtigkeit
00:00 +15°C° 0 mm 4 m/S 760 mmHg 76%
01:00 +14°C° 0 mm 3 m/S 760 mmHg 76%
02:00 +14°C° 0 mm 3 m/S 759 mmHg 76%
03:00 +14°C° 0 mm 4 m/S 759 mmHg 77%
04:00 +13°C° 0 mm 4 m/S 759 mmHg 77%
05:00 +13°C° 0 mm 3 m/S 759 mmHg 75%
06:00 +13°C° 0 mm 3 m/S 759 mmHg 73%
07:00 +15°C° 0 mm 2 m/S 759 mmHg 68%
08:00 +19°C° 0 mm 2 m/S 759 mmHg 56%
09:00 +23°C° 0 mm 2 m/S 760 mmHg 44%
10:00 +26°C° 0 mm 2 m/S 760 mmHg 33%
11:00 +27°C° 0 mm 2 m/S 759 mmHg 32%
12:00 +28°C° 0 mm 3 m/S 758 mmHg 32%
13:00 +29°C° 0 mm 4 m/S 758 mmHg 32%
14:00 +28°C° 0 mm 4 m/S 757 mmHg 34%
15:00 +28°C° 0 mm 4 m/S 757 mmHg 36%
16:00 +27°C° 0 mm 4 m/S 757 mmHg 38%
17:00 +25°C° 0 mm 4 m/S 757 mmHg 48%
18:00 +21°C° 0 mm 4 m/S 757 mmHg 57%
19:00 +19°C° 0 mm 3 m/S 758 mmHg 67%
20:00 +19°C° 0 mm 3 m/S 758 mmHg 64%
21:00 +19°C° 0 mm 3 m/S 759 mmHg 61%
22:00 +19°C° 0 mm 4 m/S 759 mmHg 58%
23:00 +19°C° 0 mm 3 m/S 759 mmHg 56%

Morgen, 12 Juli, Sonntag

Zeit Temperatur Niederschläge Wind Luftdruck Luftfeuchtigkeit
00:00 +19°C° 0 mm 3 m/S 759 mmHg 54%
01:00 +18°C° 0 mm 3 m/S 758 mmHg 52%
02:00 +18°C° 0 mm 3 m/S 758 mmHg 54%
03:00 +18°C° 0 mm 3 m/S 758 mmHg 55%
04:00 +17°C° 0 mm 2 m/S 758 mmHg 57%
05:00 +17°C° 0 mm 2 m/S 758 mmHg 58%
06:00 +17°C° 0 mm 3 m/S 759 mmHg 58%
07:00 +18°C° 0 mm 3 m/S 759 mmHg 58%
08:00 +21°C° 0 mm 3 m/S 759 mmHg 48%
09:00 +26°C° 0 mm 2 m/S 759 mmHg 37%
10:00 +29°C° 0 mm 2 m/S 759 mmHg 26%
11:00 +29°C° 0 mm 3 m/S 759 mmHg 31%
12:00 +29°C° 0 mm 4 m/S 759 mmHg 36%
13:00 +29°C° 0 mm 5 m/S 758 mmHg 41%
14:00 +28°C° 0 mm 5 m/S 758 mmHg 45%
15:00 +27°C° 0 mm 5 m/S 757 mmHg 49%
16:00 +26°C° 0 mm 5 m/S 757 mmHg 53%
17:00 +23°C° 0 mm 4 m/S 758 mmHg 63%
18:00 +21°C° 0 mm 4 m/S 758 mmHg 74%
19:00 +19°C° 0 mm 4 m/S 759 mmHg 84%
20:00 +19°C° 0 mm 3 m/S 759 mmHg 84%
21:00 +18°C° 0 mm 3 m/S 760 mmHg 83%
22:00 +18°C° 0 mm 3 m/S 760 mmHg 82%
23:00 +17°C° 0 mm 3 m/S 760 mmHg 81%

übermorgen, 13 Juli, Montag

Zeit Temperatur Niederschläge Wind Luftdruck Luftfeuchtigkeit
00:00 +17°C° 0 mm 3 m/S 760 mmHg 80%
01:00 +17°C° 0 mm 4 m/S 760 mmHg 79%
02:00 +16°C° 0 mm 3 m/S 759 mmHg 81%
03:00 +16°C° 0 mm 3 m/S 759 mmHg 82%
04:00 +15°C° 0 mm 2 m/S 758 mmHg 84%
05:00 +15°C° 0 mm 2 m/S 759 mmHg 84%
06:00 +15°C° 0 mm 1 m/S 759 mmHg 83%
07:00 +16°C° 0 mm 1 m/S 759 mmHg 82%
08:00 +20°C° 0 mm 1 m/S 759 mmHg 68%
09:00 +24°C° 0 mm 1 m/S 759 mmHg 53%
10:00 +27°C° 0 mm 1 m/S 759 mmHg 39%
11:00 +28°C° 0 mm 2 m/S 759 mmHg 40%
12:00 +28°C° 0 mm 3 m/S 758 mmHg 41%
13:00 +29°C° 0 mm 5 m/S 758 mmHg 42%
14:00 +28°C° 0 mm 4 m/S 757 mmHg 47%
15:00 +27°C° 0 mm 4 m/S 756 mmHg 51%
16:00 +26°C° 0 mm 4 m/S 756 mmHg 55%
17:00 +23°C° 0 mm 4 m/S 756 mmHg 65%
18:00 +21°C° 0 mm 3 m/S 757 mmHg 74%
19:00 +19°C° 0 mm 3 m/S 757 mmHg 83%
20:00 +19°C° 0 mm 2 m/S 758 mmHg 84%
21:00 +18°C° 0 mm 2 m/S 758 mmHg 85%
22:00 +18°C° 0 mm 2 m/S 758 mmHg 87%
23:00 +18°C° 0 mm 1 m/S 758 mmHg 86%

14 Juli, Dienstag

Zeit Temperatur Niederschläge Wind Luftdruck Luftfeuchtigkeit
00:00 +18°C° 0 mm 1 m/S 758 mmHg 84%
01:00 +18°C° 0 mm 1 m/S 758 mmHg 83%
02:00 +18°C° 0 mm 1 m/S 757 mmHg 83%
03:00 +18°C° 0 mm 1 m/S 757 mmHg 82%
04:00 +17°C° 0 mm 2 m/S 757 mmHg 82%
05:00 +17°C° 0 mm 2 m/S 757 mmHg 83%
06:00 +18°C° 0 mm 3 m/S 758 mmHg 84%
07:00 +18°C° 0 mm 3 m/S 758 mmHg 86%
08:00 +20°C° 0 mm 3 m/S 758 mmHg 74%
09:00 +24°C° 0 mm 3 m/S 759 mmHg 63%
10:00 +27°C° 0 mm 3 m/S 759 mmHg 51%
11:00 +27°C° 0 mm 4 m/S 758 mmHg 52%
12:00 +28°C° 0 mm 5 m/S 758 mmHg 53%
13:00 +29°C° 0 mm 5 m/S 757 mmHg 54%
14:00 +28°C° 0 mm 5 m/S 757 mmHg 59%
15:00 +27°C° 0 mm 5 m/S 756 mmHg 63%
16:00 +26°C° 0 mm 5 m/S 756 mmHg 68%
17:00 +23°C° 0 mm 4 m/S 756 mmHg 75%
18:00 +22°C° 0 mm 3 m/S 757 mmHg 82%
19:00 +20°C° 0 mm 2 m/S 757 mmHg 89%
20:00 +20°C° 0 mm 2 m/S 758 mmHg 90%
21:00 +20°C° 0 mm 1 m/S 758 mmHg 90%
22:00 +20°C° 0 mm 1 m/S 759 mmHg 91%
23:00 +19°C° 0 mm 1 m/S 758 mmHg 90%

15 Juli, Mittwoch

Zeit Temperatur Niederschläge Wind Luftdruck Luftfeuchtigkeit
00:00 +19°C° 0 mm 1 m/S 758 mmHg 90%
01:00 +16°C° 0 mm 0 m/S 758 mmHg 89%
02:00 +16°C° 0 mm 0 m/S 758 mmHg 90%
03:00 +16°C° 0 mm 0 m/S 758 mmHg 91%
04:00 +18°C° 0 mm 1 m/S 758 mmHg 92%
05:00 +18°C° 0 mm 1 m/S 758 mmHg 92%
06:00 +18°C° 0 mm 2 m/S 759 mmHg 92%
07:00 +18°C° 0 mm 2 m/S 760 mmHg 93%
08:00 +20°C° 0 mm 2 m/S 760 mmHg 83%
09:00 +23°C° 0 mm 2 m/S 760 mmHg 72%
10:00 +25°C° 0 mm 2 m/S 760 mmHg 62%
11:00 +27°C° 0 mm 3 m/S 759 mmHg 59%
12:00 +28°C° 0 mm 3 m/S 759 mmHg 55%
13:00 +29°C° 0 mm 4 m/S 758 mmHg 51%
14:00 +28°C° 0 mm 4 m/S 758 mmHg 55%
15:00 +27°C° 0 mm 5 m/S 757 mmHg 60%
16:00 +26°C° 0 mm 5 m/S 757 mmHg 64%
17:00 +25°C° 0 mm 4 m/S 757 mmHg 74%
18:00 +22°C° 0 mm 3 m/S 758 mmHg 83%
19:00 +20°C° 0 mm 2 m/S 759 mmHg 93%
20:00 +20°C° 0 mm 2 m/S 759 mmHg 91%
21:00 +20°C° 0 mm 2 m/S 760 mmHg 89%
22:00 +20°C° 0 mm 2 m/S 761 mmHg 88%
23:00 +20°C° 0 mm 2 m/S 761 mmHg 90%

16 Juli, Donnerstag

Zeit Temperatur Niederschläge Wind Luftdruck Luftfeuchtigkeit
00:00 +19°C° 0 mm 2 m/S 760 mmHg 92%
01:00 +18°C° 0 mm 2 m/S 760 mmHg 94%
02:00 +19°C° 0 mm 1 m/S 760 mmHg 94%
03:00 +18°C° 0 mm 1 m/S 760 mmHg 94%
04:00 +16°C° 0 mm 1 m/S 760 mmHg 95%
05:00 +16°C° 0 mm 1 m/S 760 mmHg 94%
06:00 +16°C° 0 mm 1 m/S 761 mmHg 93%
07:00 +15°C° 0 mm 0 m/S 761 mmHg 92%
08:00 +20°C° 0 mm 1 m/S 761 mmHg 80%
09:00 +23°C° 0 mm 1 m/S 761 mmHg 68%
10:00 +26°C° 0 mm 2 m/S 761 mmHg 57%
11:00 +27°C° 0 mm 2 m/S 761 mmHg 54%
12:00 +28°C° 0 mm 3 m/S 760 mmHg 52%
13:00 +29°C° 0 mm 4 m/S 759 mmHg 50%
14:00 +28°C° 0 mm 4 m/S 759 mmHg 53%
15:00 +27°C° 0 mm 4 m/S 758 mmHg 56%
16:00 +26°C° 0 mm 5 m/S 758 mmHg 59%
17:00 +25°C° 0 mm 4 m/S 759 mmHg 70%
18:00 +22°C° 0 mm 3 m/S 759 mmHg 81%
19:00 +20°C° 0 mm 2 m/S 760 mmHg 92%
20:00 +20°C° 0 mm 2 m/S 760 mmHg 92%
21:00 +20°C° 0 mm 2 m/S 761 mmHg 91%
22:00 +19°C° 0 mm 2 m/S 761 mmHg 91%
23:00 +19°C° 0 mm 2 m/S 761 mmHg 90%
Mehr zeigen